TimeCST,TemperatureF,Dew PointF,Humidity,Sea Level PressureIn,VisibilityMPH,Wind Direction,Wind SpeedMPH,Gust SpeedMPH,PrecipitationIn,Events,Conditions,WindDirDegrees,DateUTC
12:54 AM,39.9,28.0,63,30.35,10.0,Calm,Calm,-,N/A,,Clear,0,2012-11-29 06:54:00
1:54 AM,37.0,27.0,67,30.35,10.0,East,3.5,-,N/A,,Clear,100,2012-11-29 07:54:00
2:54 AM,37.9,27.0,65,30.35,10.0,Calm,Calm,-,N/A,,Clear,0,2012-11-29 08:54:00
3:54 AM,39.2,26.6,61,30.33,10.0,SSE,5.8,-,N/A,,Clear,160,2012-11-29 09:54:00
4:54 AM,39.0,26.1,60,30.35,10.0,South,6.9,-,N/A,,Partly Cloudy,170,2012-11-29 10:54:00
5:54 AM,37.9,26.1,62,30.37,10.0,SE,4.6,-,N/A,,Partly Cloudy,130,2012-11-29 11:54:00
6:54 AM,37.0,27.0,67,30.37,10.0,SE,3.5,-,N/A,,Mostly Cloudy,130,2012-11-29 12:54:00
7:54 AM,41.0,28.0,60,30.38,10.0,Calm,Calm,-,N/A,,Partly Cloudy,0,2012-11-29 13:54:00
8:54 AM,46.9,28.9,50,30.39,10.0,SSE,6.9,-,N/A,,Scattered Clouds,160,2012-11-29 14:54:00
9:54 AM,51.8,28.4,41,30.38,10.0,SSE,6.9,-,N/A,,Scattered Clouds,150,2012-11-29 15:54:00
10:54 AM,54.0,28.0,37,30.37,10.0,South,8.1,-,N/A,,Mostly Cloudy,170,2012-11-29 16:54:00
11:54 AM,57.0,27.0,32,30.34,10.0,South,6.9,-,N/A,,Mostly Cloudy,190,2012-11-29 17:54:00
12:54 PM,61.0,23.0,23,30.31,10.0,South,8.1,-,N/A,,Mostly Cloudy,190,2012-11-29 18:54:00
1:54 PM,61.0,26.1,26,30.28,10.0,SW,4.6,-,N/A,,Overcast,220,2012-11-29 19:54:00
2:54 PM,61.0,24.1,24,30.25,10.0,SSW,8.1,-,N/A,,Mostly Cloudy,200,2012-11-29 20:54:00
3:54 PM,60.1,25.0,26,30.25,10.0,South,10.4,-,N/A,,Overcast,180,2012-11-29 21:54:00
4:54 PM,55.9,26.1,32,30.24,10.0,South,5.8,-,N/A,,Mostly Cloudy,170,2012-11-29 22:54:00
5:54 PM,54.0,26.1,34,30.26,10.0,SSW,5.8,-,N/A,,Mostly Cloudy,210,2012-11-29 23:54:00
6:54 PM,52.0,28.0,40,30.27,10.0,Calm,Calm,-,N/A,,Mostly Cloudy,0,2012-11-30 00:54:00
7:54 PM,50.0,26.1,39,30.26,10.0,SSE,3.5,-,N/A,,Scattered Clouds,160,2012-11-30 01:54:00
8:54 PM,48.9,26.1,41,30.26,10.0,South,4.6,-,N/A,,Scattered Clouds,170,2012-11-30 02:54:00
9:54 PM,44.1,30.0,58,30.25,10.0,South,8.1,-,N/A,,Scattered Clouds,170,2012-11-30 03:54:00
10:54 PM,48.0,30.9,52,30.27,10.0,South,6.9,-,N/A,,Mostly Cloudy,180,2012-11-30 04:54:00
11:54 PM,48.9,33.1,54,30.26,10.0,South,5.8,-,N/A,,Mostly Cloudy,170,2012-11-30 05:54:00